When you browse on this site, cookies collect data to enhance your experience and personalize the content and advertising you see.
Visit our Privacy Policy to learn more. By continuing to use the site, you agree to this use of cookies and data.
  • în România
  • Lista ţărilor
  • Pe 7 zile
  • Temperatura apei
  • Meteo pe hartă
  • Widget-uri
  • user-avatar
    Intrare

    Meteo pe oră la Barcelona

    Astăzi, 9 Decembrie, Luni

    Timp Temperatura Precipitaţii Vânt Presiune Umiditate
    00:00 +25°C° 0 mm 4 m/s 759 mmHg 92%
    01:00 +25°C° 0 mm 4 m/s 758 mmHg 92%
    02:00 +24°C° 0 mm 3 m/s 758 mmHg 92%
    03:00 +24°C° 0 mm 3 m/s 758 mmHg 93%
    04:00 +24°C° 0 mm 3 m/s 758 mmHg 93%
    05:00 +22°C° 0 mm 3 m/s 758 mmHg 93%
    06:00 +24°C° 0 mm 2 m/s 758 mmHg 91%
    07:00 +25°C° 0 mm 2 m/s 759 mmHg 89%
    08:00 +26°C° 0 mm 1 m/s 759 mmHg 87%
    09:00 +29°C° 0 mm 1 m/s 759 mmHg 79%
    10:00 +31°C° 0 mm 1 m/s 759 mmHg 71%
    11:00 +33°C° 0 mm 1 m/s 759 mmHg 63%
    12:00 +34°C° 0 mm 2 m/s 758 mmHg 63%
    13:00 +32°C° 0 mm 2 m/s 758 mmHg 62%
    14:00 +33°C° 0 mm 3 m/s 757 mmHg 62%
    15:00 +32°C° 0 mm 4 m/s 756 mmHg 67%
    16:00 +30°C° 0 mm 4 m/s 756 mmHg 72%
    17:00 +29°C° 0 mm 5 m/s 756 mmHg 77%
    18:00 +28°C° 0.1 mm 5 m/s 757 mmHg 81%
    19:00 +27°C° 0.1 mm 5 m/s 757 mmHg 85%
    20:00 +26°C° 0.1 mm 5 m/s 758 mmHg 90%
    21:00 +26°C° 0 mm 5 m/s 758 mmHg 91%
    22:00 +26°C° 0 mm 4 m/s 758 mmHg 92%
    23:00 +25°C° 0 mm 4 m/s 758 mmHg 93%

    Mâine, 10 Decembrie, Marţi

    Timp Temperatura Precipitaţii Vânt Presiune Umiditate
    00:00 +25°C° 0 mm 3 m/s 758 mmHg 94%
    01:00 +25°C° 0 mm 3 m/s 758 mmHg 95%
    02:00 +24°C° 0 mm 3 m/s 758 mmHg 95%
    03:00 +24°C° 0 mm 2 m/s 758 mmHg 95%
    04:00 +24°C° 0 mm 2 m/s 758 mmHg 95%
    05:00 +23°C° 0 mm 1 m/s 758 mmHg 95%
    06:00 +24°C° 0 mm 1 m/s 758 mmHg 93%
    07:00 +25°C° 0 mm 1 m/s 759 mmHg 91%
    08:00 +26°C° 0 mm 1 m/s 759 mmHg 89%
    09:00 +28°C° 0 mm 1 m/s 759 mmHg 81%
    10:00 +29°C° 0 mm 2 m/s 759 mmHg 72%
    11:00 +31°C° 0 mm 2 m/s 759 mmHg 64%
    12:00 +31°C° 0 mm 2 m/s 759 mmHg 63%
    13:00 +31°C° 0 mm 2 m/s 758 mmHg 62%
    14:00 +31°C° 0 mm 3 m/s 757 mmHg 61%
    15:00 +31°C° 0 mm 3 m/s 757 mmHg 66%
    16:00 +30°C° 0 mm 4 m/s 756 mmHg 72%
    17:00 +29°C° 0 mm 5 m/s 756 mmHg 77%
    18:00 +28°C° 0 mm 5 m/s 756 mmHg 81%
    19:00 +27°C° 0 mm 5 m/s 757 mmHg 84%
    20:00 +26°C° 0 mm 5 m/s 758 mmHg 88%
    21:00 +26°C° 0 mm 5 m/s 758 mmHg 89%
    22:00 +26°C° 0 mm 4 m/s 758 mmHg 91%
    23:00 +25°C° 0 mm 4 m/s 758 mmHg 92%

    Poimâine, 11 Decembrie, Miercuri

    Timp Temperatura Precipitaţii Vânt Presiune Umiditate
    00:00 +25°C° 0 mm 4 m/s 758 mmHg 93%
    01:00 +25°C° 0 mm 4 m/s 758 mmHg 93%
    02:00 +24°C° 0 mm 3 m/s 757 mmHg 94%
    03:00 +24°C° 0 mm 3 m/s 757 mmHg 94%
    04:00 +24°C° 0 mm 2 m/s 757 mmHg 94%
    05:00 +23°C° 0 mm 2 m/s 757 mmHg 94%
    06:00 +24°C° 0.1 mm 1 m/s 758 mmHg 92%
    07:00 +25°C° 0.1 mm 1 m/s 758 mmHg 89%
    08:00 +26°C° 0.1 mm 1 m/s 758 mmHg 87%
    09:00 +28°C° 0 mm 1 m/s 759 mmHg 80%
    10:00 +30°C° 0 mm 1 m/s 759 mmHg 72%
    11:00 +32°C° 0 mm 1 m/s 759 mmHg 65%
    12:00 +32°C° 0.3 mm 1 m/s 758 mmHg 67%
    13:00 +31°C° 0.3 mm 2 m/s 757 mmHg 69%
    14:00 +31°C° 0.3 mm 2 m/s 756 mmHg 72%
    15:00 +30°C° 0.4 mm 3 m/s 756 mmHg 75%
    16:00 +29°C° 0.4 mm 3 m/s 756 mmHg 78%
    17:00 +29°C° 0.4 mm 4 m/s 755 mmHg 81%
    18:00 +28°C° 0.2 mm 4 m/s 756 mmHg 83%
    19:00 +27°C° 0.2 mm 4 m/s 756 mmHg 86%
    20:00 +26°C° 0.2 mm 5 m/s 757 mmHg 88%
    21:00 +26°C° 0.3 mm 4 m/s 757 mmHg 89%
    22:00 +25°C° 0.3 mm 3 m/s 757 mmHg 91%
    23:00 +25°C° 0.3 mm 3 m/s 757 mmHg 92%

    12 Decembrie, Joi

    Timp Temperatura Precipitaţii Vânt Presiune Umiditate
    00:00 +25°C° 0.2 mm 2 m/s 757 mmHg 93%
    01:00 +25°C° 0.2 mm 2 m/s 757 mmHg 94%
    02:00 +24°C° 0.2 mm 2 m/s 756 mmHg 94%
    03:00 +24°C° 0.1 mm 2 m/s 756 mmHg 95%
    04:00 +24°C° 0.1 mm 2 m/s 756 mmHg 95%
    05:00 +24°C° 0.1 mm 2 m/s 756 mmHg 95%
    06:00 +25°C° 0 mm 1 m/s 756 mmHg 93%
    07:00 +25°C° 0 mm 1 m/s 757 mmHg 91%
    08:00 +26°C° 0 mm 1 m/s 757 mmHg 89%
    09:00 +28°C° 0.1 mm 1 m/s 757 mmHg 82%
    10:00 +30°C° 0.1 mm 1 m/s 757 mmHg 75%
    11:00 +32°C° 0.1 mm 1 m/s 757 mmHg 67%
    12:00 +32°C° 0.5 mm 1 m/s 757 mmHg 70%
    13:00 +31°C° 0.5 mm 2 m/s 756 mmHg 72%
    14:00 +31°C° 0.5 mm 2 m/s 755 mmHg 74%
    15:00 +30°C° 0.3 mm 2 m/s 755 mmHg 76%
    16:00 +29°C° 0.3 mm 3 m/s 755 mmHg 78%
    17:00 +29°C° 0.3 mm 3 m/s 754 mmHg 80%
    18:00 +28°C° 0.2 mm 3 m/s 755 mmHg 82%
    19:00 +27°C° 0.2 mm 4 m/s 755 mmHg 85%
    20:00 +26°C° 0.2 mm 4 m/s 756 mmHg 88%
    21:00 +26°C° 0.4 mm 4 m/s 756 mmHg 90%
    22:00 +25°C° 0.4 mm 3 m/s 756 mmHg 92%
    23:00 +25°C° 0.4 mm 2 m/s 757 mmHg 93%

    13 Decembrie, Vineri

    Timp Temperatura Precipitaţii Vânt Presiune Umiditate
    00:00 +25°C° 0.1 mm 2 m/s 756 mmHg 93%
    01:00 +25°C° 0.1 mm 1 m/s 756 mmHg 93%
    02:00 +25°C° 0.1 mm 1 m/s 756 mmHg 93%
    03:00 +24°C° 0 mm 1 m/s 756 mmHg 94%
    04:00 +24°C° 0 mm 1 m/s 756 mmHg 94%
    05:00 +24°C° 0 mm 1 m/s 756 mmHg 94%
    06:00 +25°C° 0 mm 1 m/s 756 mmHg 92%
    07:00 +26°C° 0 mm 1 m/s 756 mmHg 91%
    08:00 +26°C° 0 mm 1 m/s 757 mmHg 89%
    09:00 +28°C° 0 mm 1 m/s 757 mmHg 81%
    10:00 +30°C° 0 mm 1 m/s 757 mmHg 72%
    11:00 +32°C° 0 mm 2 m/s 757 mmHg 64%
    12:00 +31°C° 0.5 mm 2 m/s 756 mmHg 69%
    13:00 +31°C° 0.5 mm 2 m/s 756 mmHg 74%
    14:00 +30°C° 0.5 mm 2 m/s 755 mmHg 79%
    15:00 +29°C° 0.5 mm 2 m/s 755 mmHg 80%
    16:00 +29°C° 0.5 mm 2 m/s 754 mmHg 81%
    17:00 +28°C° 0.5 mm 2 m/s 754 mmHg 83%
    18:00 +27°C° 0.2 mm 2 m/s 755 mmHg 85%
    19:00 +27°C° 0.2 mm 3 m/s 755 mmHg 87%
    20:00 +26°C° 0.2 mm 3 m/s 756 mmHg 89%
    21:00 +26°C° 0.7 mm 2 m/s 756 mmHg 90%
    22:00 +25°C° 0.7 mm 2 m/s 757 mmHg 92%
    23:00 +25°C° 0.7 mm 2 m/s 757 mmHg 93%

    14 Decembrie, Sâmbătă

    Timp Temperatura Precipitaţii Vânt Presiune Umiditate
    00:00 +25°C° 0.1 mm 1 m/s 757 mmHg 93%
    01:00 +24°C° 0.1 mm 1 m/s 756 mmHg 94%
    02:00 +24°C° 0.1 mm 1 m/s 756 mmHg 95%
    03:00 +24°C° 0 mm 1 m/s 756 mmHg 95%
    04:00 +24°C° 0 mm 1 m/s 756 mmHg 95%
    05:00 +24°C° 0 mm 1 m/s 756 mmHg 95%
    06:00 +25°C° 0 mm 1 m/s 756 mmHg 93%
    07:00 +26°C° 0 mm 1 m/s 757 mmHg 91%
    08:00 +26°C° 0 mm 1 m/s 757 mmHg 88%
    09:00 +29°C° 0 mm 1 m/s 758 mmHg 80%
    10:00 +31°C° 0 mm 1 m/s 758 mmHg 72%
    11:00 +33°C° 0 mm 1 m/s 758 mmHg 64%
    12:00 +32°C° 0.1 mm 1 m/s 757 mmHg 64%
    13:00 +32°C° 0.1 mm 1 m/s 756 mmHg 65%
    14:00 +32°C° 0.1 mm 2 m/s 755 mmHg 66%
    15:00 +31°C° 0.2 mm 2 m/s 755 mmHg 71%
    16:00 +30°C° 0.2 mm 2 m/s 755 mmHg 76%
    17:00 +29°C° 0.2 mm 3 m/s 755 mmHg 81%
    18:00 +28°C° 0.1 mm 3 m/s 755 mmHg 83%
    19:00 +27°C° 0.1 mm 3 m/s 756 mmHg 85%
    20:00 +26°C° 0.1 mm 3 m/s 757 mmHg 87%
    21:00 +26°C° 0.2 mm 2 m/s 757 mmHg 89%
    22:00 +26°C° 0.2 mm 2 m/s 757 mmHg 91%
    23:00 +26°C° 0.2 mm 1 m/s 758 mmHg 93%
    Arată mai mult